Regional Weather Roundup
Issued by NWS

Home | Current Version | Previous Version | Graphics & Text | Print | Product List | Glossary On
Versions: 1 2 3 4 5 6 7 8 9 10 11 12 13 14 15 16 17 18 19 20 21 22 23 24 25 26 27 28 29 30 31 32 33 34 35 36 37 38 39 40 41 42 43 44 45 46 47 48 49 50
000
ASUS43 KFSD 261202
RWRSD

WEATHER ROUNDUP FOR SOUTH DAKOTA
NATIONAL WEATHER SERVICE SIOUX FALLS SD
700 AM CDT SUN APR 26 2015

NOTE: "FAIR" INDICATES FEW OR NO CLOUDS BELOW 12,000 FEET WITH NO
SIGNIFICANT WEATHER AND/OR OBSTRUCTIONS TO VISIBILITY.


SDZ001>005-009-010-012>017-261300-
NORTHWEST AND NORTH CENTRAL SOUTH DAKOTA

CITY           SKY/WX    TMP DP  RH WIND       PRES   REMARKS
BUFFALO          N/A     43  40  89 NE5       29.90R
FAITH            N/A     48  43  82 E6        29.94R
MOBRIDGE       CLOUDY    51  42  71 SE12      29.96R
$$

SDZ012>016-024>037-041>051-057-063-072>074-261300-
SOUTHWEST AND SOUTH CENTRAL SOUTH DAKOTA

CITY           SKY/WX    TMP DP  RH WIND       PRES   REMARKS
RAPID CTY ARPT CLOUDY    43  41  93 N17       29.91R
PIERRE         CLOUDY    48  42  80 SE10      29.97R
CUSTER         CLOUDY    40  39  97 NE8       29.90R FOG
ELLSWORTH AFB  CLOUDY    42  42 100 N17       29.91R FOG
PHILIP         CLOUDY    49  45  86 SE10      29.93R
PINE RIDGE     CLOUDY    49  44  83 E12       29.89R
WINNER         CLOUDY    47  42  83 SE5       29.97R HAZE
$$

SDZ004>011-016>023-039-040-261300-
NORTHEAST SOUTH DAKOTA

CITY           SKY/WX    TMP DP  RH WIND       PRES   REMARKS
ABERDEEN       CLOUDY    47  40  76 E5        30.03R
WATERTOWN      CLEAR     33  30  88 CALM      30.05R
BROOKINGS      PTCLDY    32  30  93 CALM      30.06R
SISSETON         N/A     32  31  96 S6        30.08R WCI  26
$$

SDZ017-020-022-023-036>040-048>070-261300-
SOUTHEAST SOUTH DAKOTA

CITY           SKY/WX    TMP DP  RH WIND       PRES   REMARKS
SIOUX FALLS    PTCLDY    34  32  92 NE5       30.04R FOG     WCI  30
HURON          CLEAR     34  32  92 E5        30.03R FOG     WCI  30
MITCHELL       CLEAR     38  36  92 E6        30.02R FOG
YANKTON        PTCLDY    41  36  81 NE7       30.01R
$$

ABBREVIATIONS USED IN REMARKS
   TC - TEMPERATURE IN CELSIUS
  WCI - WIND CHILL INDEX
   HX - HEAT INDEX
  VSB - VISIBILITY



USA.gov is the U.S. government's official web portal to all federal, state and local government web resources and services.